Regional Weather Roundup
Issued by NWS

Home | Current Version | Previous Version | Text Only | Print | Product List | Glossary Off
Versions: 1 2 3 4 5 6 7 8 9 10 11 12 13 14 15 16 17 18 19 20 21 22 23 24 25 26 27 28 29 30 31 32 33 34 35 36 37 38 39 40 41 42 43 44 45 46 47 48 49 50

000
ASUS45 KBOU 171707
RWRCO

WEATHER ROUNDUP FOR COLORADO
NATIONAL WEATHER SERVICE DENVER/BOULDER CO
1100 AM MDT FRI APR 17 2015

NOTE: "FAIR" INDICATES FEW OR NO CLOUDS BELOW 12000 FEET WITH NO
SIGNIFICANT WEATHER AND/OR OBSTRUCTIONS TO VISIBILITY.

COZ001>005-013-030-031-171800-
...NORTHWEST COLORADO...

CITY           SKY/WX    TMP DP  RH WIND       PRES   REMARKS
CRAIG          PTSUNNY   46  36  68 VRB3      29.97F
HAYDEN         PTSUNNY   39  32  75 W5        29.98F
MEEKER         CLOUDY    41  36  82 MISG      29.97S
MOUNT WERNER   NOT AVBL
STEAMBOAT SPGS CLOUDY    45  30  54 W7        29.94F
WALDEN         CLOUDY    34  30  86 N15       30.00F WCI  24
$$

COZ006>008-011-171800-
...WEST CENTRAL VALLEYS...

CITY           SKY/WX    TMP DP  RH WIND       PRES   REMARKS
GRAND JUNCTION LGT SNOW  33  33 100 E5        30.03S FOG     WCI  29
MONTROSE       CLOUDY    37  28  70 E3        30.05S
EAGLE          LGT SNOW  36  34  93 S8        30.00R FOG
RIFLE          LGT SNOW  35  33  92 NW5       30.00S FOG     WCI  31
DELTA          CLOUDY    37  35  92 NE3       30.06S
NUCLA          CLOUDY    34  32  93 NE3       30.09F FOG
$$

COZ017>023-064>068-171800-
...SOUTHWEST COLORADO...

CITY           SKY/WX    TMP DP  RH WIND       PRES   REMARKS
DURANGO        PTSUNNY   40  11  30 SW13      30.03S
CORTEZ         CLOUDY    39  19  44 VRB6      30.07S
PAGOSA SPRINGS PTSUNNY   36   2  24 SE7       30.03S
TELLURIDE      CLOUDY    28  17  63 CALM      30.02S
WOLF CREEK PAS CLOUDY    14   5  67 SW15G21   30.02R WCI  -1
$$

COZ009-010-012-014-032>034-037-058>063-171800-
...CENTRAL COLORADO...

CITY           SKY/WX    TMP DP  RH WIND       PRES   REMARKS
ASPEN          SNOW      29  28  96 S6        29.94F VSB 1/2 WCI  23
BUENA VISTA    SNOW      27  24  89 SE10      30.02R VSB 1/2 WCI  17
COPPER MTN     HVY SNOW  27  21  80 E31       29.96F VSB<1/4 WCI  10
BERTHOUD PASS  HVY SNOW  19  12  73 MISG      30.03R VSB<1/4
COTTONWOOD PAS LGT SNOW  28  25  86 CALM      30.00R VSB 3/4
GUNNISON         N/A     27  23  86 E3        30.05R VSB 3/4
KREMMLING      CLOUDY    37  30  75 NE6       29.98R
LEADVILLE      HVY SNOW  24  22  91 S16       29.97R VSB<1/4 WCI  11
SALIDA         CLOUDY    30  28  92 MISG      30.10R
SUNLIGHT       SNOW     N/A N/A N/A CALM      30.02S VSB 1/2
WILKERSON PASS CLOUDY   N/A N/A N/A MISG      30.03R
$$

COZ069>075-171800-
...SAN LUIS VALLEY/SANGRE DE CRISTO MOUNTAINS...

CITY           SKY/WX    TMP DP  RH WIND       PRES   REMARKS
ALAMOSA        SUNNY     36  18  48 SW6       30.01R
LA VETA PASS   SUNNY     27  16  63 CALM      29.99F
SAGUACHE       CLOUDY    32  23  69 CALM      30.02S
$$

COZ035-036-038>040-171800-
...NORTHERN COLORADO FRONT RANGE...

CITY           SKY/WX    TMP DP  RH WIND       PRES   REMARKS
DENVER INTL AP LGT RAIN  42  42 100 NE7       29.99S VSB 1/4
DMNS CITY PARK   N/A     38  38  98 NW5G13    30.00S
AURORA         LGT RAIN  37  37 100 SW6       30.01R VSB 1/4
FRONT RANGE AP FOG       45  43  93 E3        30.00R VSB 1/4
ERIE MUNI ARPT RAIN      39  39 100 N15G22    30.01S
BOULDER MUN AP LGT RAIN  39  37  93 N17       30.00F
CENTENNIAL     LGT RAIN  35  35 100 SW10      30.00R VSB 1   WCI  27
BROOMFIELD     RAIN      37  37 100 NW17      30.01R
FORT COLLINS   CLOUDY    39  37  93 NW17      30.04F
LONGMONT       LGT RAIN  43  40  89 N21G29    30.03S
$$

COZ041-046-047-076>085-087-088-171800-
...PIKES PEAK/PALMER DIVIDE AND SOUTHERN FOOTHILLS...

CITY           SKY/WX    TMP DP  RH WIND       PRES   REMARKS
COLO. SPRINGS  PTSUNNY   45  34  65 S12       30.00R
A. F. ACADEMY  PTSUNNY   36  35  98 CALM      29.99S
ELLICOTT       MOSUNNY  N/A N/A N/A W7        29.99S
FALCON         CLOUDY    38  34  85 SE3       30.02R
FORT CARSON    PTSUNNY   45  34  65 SE9       29.98R
LIMON          PTSUNNY   48  44  86 S22       30.00R
MONUMENT HILL  CLOUDY    36  32  87 CALM      30.00S
TRINIDAD       SUNNY     49  20  31 NW6       29.98R
$$

COZ042>045-048>051-090-091-171800-
...NORTHEAST COLORADO...

CITY           SKY/WX    TMP DP  RH WIND       PRES   REMARKS
GREELEY ARPT   CLOUDY    46  41  81 NE16      30.00F
AKRON          LGT RAIN  48  47  96 E23G29    30.00S
BURLINGTON     CLOUDY    51  48  89 SE12      30.01S
WRAY           CLOUDY   N/A N/A N/A E13G21    30.03R
STERLING       CLOUDY    52  48  87 E16G24    30.01R
HOLYOKE        PTSUNNY   54  50  87 E17G24    30.04S
FORT MORGAN    DRIZZLE   49  47  94 E10       30.00S
$$

COZ086-089-092>099-171800-
...SOUTHEAST COLORADO...

CITY           SKY/WX    TMP DP  RH WIND       PRES   REMARKS
PUEBLO         MOSUNNY   46  37  71 VRB5      29.99R
LA JUNTA       SUNNY     53  41  63 CALM      29.97F
LAMAR          CLOUDY    54  50  86 W10       29.95F
SPRINGFIELD      N/A     59  45  59 S12G17    29.97S
$$



USA.gov is the U.S. government's official web portal to all federal, state and local government web resources and services.